Zurück zum Katalog

ICEYE-X65

AktivWissenschaftVLEO
NORAD 66300·PAYLOAD·🇦🇪 UAE

Gestartet Nov 2, 2025 von Cape Canaveral Space Force Station

Loading…

Nächste Überflüge (nächste 24 Stunden)

TLE

AlterndSource: Space-Track

Epoche: Sep 13, 2026, 09:19 UTC

1 66300U 25248H   26256.38880443  .00001424  00000-0  10659-3 0  9990
2 66300  45.4061  30.2856 0004885 173.0711 187.0239 15.08172308 48834

Verfolge ICEYE-X65 in Echtzeit mit AllMySat

Download on the App Store